ARIANE 5 DEB, 43383

Orbit data source: Space-Track

ARIANE 5 DEB, 43383 is space debris in HEO originally from a launch on Thu, 12 Jun 2008 UTC launched from the French Guiana (FRGUI). Debris objects in space refer to the collection of defunct objects orbiting the Earth. Examples of debris include non-operational satellites, rocket bodies, and fragments generated from explosions, collisions, or faulty payload assembly.

Loading next visibility...
Identifier
43383, 2008-030F
Orbit
HEO
Country
Flag of FRFR
Related business
Manufacturer
Thales Alenia
Mission
Spacecraft
Bus & Motor
Unknown
Mass
Unknown
Launch date (UTC)
2008-06-12 (17 years ago)
Launch vehicle
Unknown
Launch site
French Guiana (FRGUI)
Object type
Payload
Rocket body
Debris
Shape & HBR
Unknown
Radar Cross Section
Medium (>0.1 m² and <1 m²)

Expand to show TLE details & history
Last TLE update: 17 hours ago

TLE from 17 hours ago
0 ARIANE 5 DEB
1 43383U 08030F   25259.24354290  .00056716  00000-0  14671+0 0  9997
2 43383   2.0669 130.2704 6955385  17.3829 357.8620  2.60115146141366
Epoch: 2025-09-16T05:50Z
TLE epoch observation values (Epoch: 2025-09-16T05:50:42.106Z)
Latitude
0.00001°
Longitude
47.45957°
Altitude
532.63 km
Speed
9.874 km/s
True Right ascension
08h 42m 17s
True Declination
0° 00' 00"
Sunlit
Object was in daylight at epoch
Visualization orbit readout
Latitude
Unknown
Longitude
Unknown
Altitude
Unknown
Speed
Unknown
Apparent Right ascension
Unknown
Apparent Declination
Unknown
Sunlit
N/A
Visualization observer readout
Local Sidereal Time
15:59:30
Azimuth
Unknown
Elevation
Unknown
Doppler factor
Unknown
Orbital elements
Apogee altitude
31,498.307 km
Perigee altitude
423.194 km
Semi-major axis
22,338.887 km
Eccentricity
0.69554
Inclination
2.0669°
RAAN
130.2704°
Arg. of periapsis
17.3829°
True anomaly
343.61376°
Mean anomaly
357.862°
Eccentric anomaly
353.01723°
Mean motion
0.65006 °/min
Orbital period
553.8 mins
BSTAR
0.14671
Loading maneuver chart data...
Computing Atmospheric mass density...
Loading historical data...
Loading historical data...
Loading historical data...
Loading historical data...
Loading historical data...
Loading historical data...
Loading historical data...

Documentation

Showing up to 5 results
|